Location: The Jewett Observatory
(46.7288°N, 117.1525°W)
Time: 05:48:20
(UTC-08:00)

Amateur Radio Satellites - All Passes

Search period start: 23 February 2017 05:18
Search period end: 24 February 2017 05:18
Location: The Jewett Observatory, 46.7288°N, 117.1525°W

Satellite Date Start Highest point End Downlink Frequencies (MHz)
Time Altitude Azimuth
LilacSat-2 23 Feb 05:25:30 05:28:51 27° 95° (E) 05:32:09 437.200
NUDT-PHONESAT 23 Feb 05:32:27 05:35:38 25° 95° (E) 05:38:49 437.300
AO-85 23 Feb 05:44:08 05:48:22 42° 313° (NW) 05:52:20 145.980
STRAND 1 23 Feb 05:55:00 06:00:03 60° 71° (ENE) 06:05:08 437.568
HO-68 23 Feb 06:03:13 06:07:40 17° 87° (E) 06:12:05 435.675
KAITUO 1B 23 Feb 06:27:54 06:31:42 70° 285° (WNW) 06:35:26 145.475/437.950
XW-2F 23 Feb 06:28:32 06:32:20 58° 286° (WNW) 06:36:04 145.980 - 146.000
CUTE-I 23 Feb 06:29:27 06:34:52 86° 286° (WNW) 06:40:15 437.470
XW-2D 23 Feb 06:31:41 06:35:26 51° 287° (WNW) 06:39:08 145.860 - 145.880
AO-7 23 Feb 06:33:53 06:38:38 17° 320° (NW) 06:43:24 .
CUTE 1.7 + AOD 2 23 Feb 06:36:09 06:39:20 20° 92° (E) 06:42:29 437.475
XW-2B 23 Feb 06:36:42 06:40:25 46° 288° (WNW) 06:44:04 145.730 - 145.750
DOVE 4 23 Feb 06:38:21 06:42:48 51° 288° (WNW) 06:47:30 437.250
BEESAT 3 23 Feb 06:43:36 06:47:27 62° 123° (ESE) 06:51:24 437.485
XW-2C 23 Feb 06:45:21 06:48:55 37° 290° (WNW) 06:52:27 145.795 - 145.815
SO-50 23 Feb 06:49:27 06:54:00 76° 53° (NE) 06:58:28 436.795
LilacSat-2 23 Feb 06:59:50 07:03:04 26° 293° (WNW) 07:06:16 437.200
NUDT-PHONESAT 23 Feb 07:06:21 07:09:33 26° 292° (WNW) 07:12:42 437.300
UWE-3 23 Feb 07:11:40 07:14:36 16° 89° (E) 07:17:30 435.000/436.395/437.385
PRISM 23 Feb 07:12:46 07:15:26 17° 62° (ENE) 07:18:07 437.425
BEESAT 2 23 Feb 07:16:25 07:20:18 57° 122° (ESE) 07:24:15 435.950
XW-2A 23 Feb 07:23:47 07:27:17 75° 284° (WNW) 07:30:44 145.665 - 145.685
AO-85 23 Feb 07:28:50 07:29:48 11° 335° (NNW) 07:30:45 145.980
AAUSAT CUBESAT 2 23 Feb 07:34:19 07:37:53 28° 95° (E) 07:41:25 437.432
STRAND 1 23 Feb 07:35:56 07:39:38 20° 269° (W) 07:43:21 437.568
SEEDS 23 Feb 07:37:27 07:41:36 60° 100° (E) 07:45:42 437.485
ZACube-1 23 Feb 07:38:07 07:41:13 18° 90° (E) 07:44:17 437.345
O/OREOS (USA 219) 23 Feb 07:40:38 07:44:49 34° 56° (NE) 07:48:59 437.305
HO-68 23 Feb 07:49:12 07:56:25 85° 107° (ESE) 08:03:35 435.675
FO-29 23 Feb 07:58:23 08:03:54 24° 53° (NE) 08:09:41 435.910
CUBEBUG 2 23 Feb 08:04:12 08:09:00 78° 103° (ESE) 08:13:46 437.445
CUTE-I 23 Feb 08:11:07 08:14:08 15° 305° (NW) 08:17:08 437.470
CUTE 1.7 + AOD 2 23 Feb 08:11:22 08:15:21 41° 290° (WNW) 08:19:17 437.475
UNISAT 6 23 Feb 08:13:16 08:17:12 30° 66° (ENE) 08:21:15 437.425
TIGRISAT 23 Feb 08:14:23 08:18:16 29° 66° (ENE) 08:22:15 435.000
ISS 23 Feb 08:15:01 08:17:39 22° 139° (SE) 08:20:19 437.550
BEESAT 3 23 Feb 08:22:27 08:25:26 20° 323° (NW) 08:28:28 437.485
AO-73 23 Feb 08:27:06 08:31:33 48° 99° (E) 08:35:53 145.935
SO-50 23 Feb 08:31:21 08:33:52 15° 250° (WSW) 08:36:21 436.795
Oscar 11 23 Feb 08:36:56 08:41:10 52° 99° (E) 08:45:23 .
Tancredo 1 23 Feb 08:45:46 08:48:51 41° 145° (SE) 08:51:57 437.200
PRISM 23 Feb 08:46:24 08:50:22 50° 259° (W) 08:54:21 437.425
UWE-3 23 Feb 08:46:49 08:51:29 63° 287° (WNW) 08:56:03 435.000/436.395/437.385
BEESAT 2 23 Feb 08:55:17 08:58:24 21° 322° (NW) 09:01:34 435.950
AAUSAT CUBESAT 2 23 Feb 09:09:46 09:13:19 28° 293° (WNW) 09:16:50 437.432
ZACube-1 23 Feb 09:13:21 09:17:51 55° 288° (WNW) 09:22:16 437.345
SEEDS 23 Feb 09:14:22 09:16:50 15° 299° (WNW) 09:19:17 437.485
O/OREOS (USA 219) 23 Feb 09:20:09 09:24:10 31° 255° (WSW) 09:28:10 437.305
YUBILEINY 23 Feb 09:23:01 09:30:47 37° 84° (E) 09:38:31 435.215
DELFI C3 23 Feb 09:27:41 09:31:36 60° 101° (ESE) 09:35:28 145.870
DUCHIFAT 1 23 Feb 09:34:42 09:37:32 18° 62° (ENE) 09:40:22 145.980
HO-68 23 Feb 09:37:58 09:43:21 24° 307° (NW) 09:48:43 435.675
AIST 2D 23 Feb 09:39:32 09:42:37 28° 69° (ENE) 09:45:45 435.315
FO-29 23 Feb 09:40:44 09:47:51 89° 75° (ENE) 09:55:42 435.910
EO-79 23 Feb 09:42:05 09:45:28 24° 65° (ENE) 09:48:54 145.935-145.965
CUBEBUG 2 23 Feb 09:42:15 09:45:00 15° 301° (WNW) 09:47:45 437.445
UNISAT 6 23 Feb 09:49:51 09:53:52 32° 265° (W) 09:58:00 437.425
ISS 23 Feb 09:50:34 09:53:52 70° 338° (NNW) 09:57:10 437.550
TIGRISAT 23 Feb 09:50:48 09:54:52 33° 264° (W) 09:59:03 435.000
POLYITAN 1 23 Feb 09:58:19 10:02:09 34° 68° (ENE) 10:06:02 437.675
NANOSAT C BR1 23 Feb 10:00:05 10:03:51 33° 68° (ENE) 10:07:40 145.865
QB50P2 23 Feb 10:01:04 10:05:00 39° 69° (ENE) 10:08:59 145.880/145.840
AO-73 23 Feb 10:04:00 10:07:27 21° 297° (WNW) 10:10:51 145.935
Oscar 11 23 Feb 10:13:57 10:16:57 18° 298° (WNW) 10:19:55 .
ESTCUBE 1 23 Feb 10:15:10 10:17:55 16° 90° (E) 10:20:40 437.505/2401.250
Tancredo 1 23 Feb 10:21:58 10:25:09 47° 344° (NNW) 10:28:18 437.200
BUGSAT 1 23 Feb 10:40:13 10:43:42 28° 67° (ENE) 10:47:15 437.445
VELOX 1 23 Feb 10:51:08 10:52:58 12° 89° (E) 10:54:49 145.980
AO-85 23 Feb 10:53:31 10:54:44 11° 26° (NNE) 10:55:57 145.980
DELFI C3 23 Feb 11:03:53 11:05:56 14° 298° (WNW) 11:07:57 145.870
DUCHIFAT 1 23 Feb 11:08:43 11:12:49 52° 260° (W) 11:16:58 145.980
AIST 2D 23 Feb 11:13:09 11:15:53 21° 266° (W) 11:18:38 435.315
SPROUT 23 Feb 11:15:06 11:18:05 18° 92° (E) 11:21:03 437.525
EO-79 23 Feb 11:17:10 11:21:04 36° 263° (W) 11:25:02 145.935-145.965
YUBILEINY 23 Feb 11:18:34 11:27:12 57° 285° (WNW) 11:35:53 435.215
ISS 23 Feb 11:27:38 11:30:41 33° 357° (N) 11:33:44 437.550
FO-29 23 Feb 11:28:50 11:33:56 20° 276° (W) 11:39:21 435.910
50 SAT 23 Feb 11:30:58 11:33:28 18° 94° (E) 11:35:57 437.505
Oscar 19 23 Feb 11:34:09 11:38:50 36° 66° (ENE) 11:43:31 437.125/150
POLYITAN 1 23 Feb 11:34:31 11:38:01 25° 266° (W) 11:41:33 437.675
NANOSAT C BR1 23 Feb 11:36:05 11:39:37 25° 266° (W) 11:43:10 145.865
QB50P2 23 Feb 11:37:39 11:40:56 22° 267° (W) 11:44:16 145.880/145.840
ESTCUBE 1 23 Feb 11:50:42 11:55:08 59° 288° (WNW) 11:59:31 437.505/2401.250
Tancredo 1 23 Feb 11:58:53 12:01:52 33° 3° (N) 12:04:52 437.200
AO-7 23 Feb 12:00:10 12:05:33 19° 42° (NE) 12:10:55 .
Gurwin Techsat 1B 23 Feb 12:01:20 12:06:11 37° 66° (ENE) 12:11:02 435.225
BUGSAT 1 23 Feb 12:15:33 12:19:02 27° 265° (W) 12:22:35 437.445
DX 1 23 Feb 12:24:23 12:28:37 49° 100° (E) 12:32:50 434.975-435.025
VELOX 1 23 Feb 12:25:32 12:29:56 75° 287° (WNW) 12:34:21 145.980
AO-85 23 Feb 12:32:15 12:36:05 50° 48° (NE) 12:39:55 145.980
UKube-1 23 Feb 12:40:53 12:45:07 53° 101° (E) 12:49:20 .
SPROUT 23 Feb 12:50:05 12:54:16 48° 289° (WNW) 12:58:25 437.525
50 SAT 23 Feb 13:03:35 13:06:40 30° 291° (WNW) 13:09:44 437.505
ISS 23 Feb 13:04:22 13:07:35 48° 16° (NNE) 13:10:48 437.550
Oscar 19 23 Feb 13:13:33 13:18:10 33° 264° (W) 13:22:48 437.125/150
BEESAT 3 23 Feb 13:21:03 13:23:42 17° 34° (NE) 13:26:21 437.485
YUBILEINY 23 Feb 13:22:14 13:26:23 14° 311° (NW) 13:30:33 435.215
ITUPSAT 1 23 Feb 13:30:15 13:32:51 14° 89° (E) 13:35:27 437.325
Tancredo 1 23 Feb 13:35:15 13:38:30 70° 24° (NNE) 13:41:43 437.200
BEESAT 23 Feb 13:37:50 13:41:01 17° 91° (E) 13:44:11 436.000
Gurwin Techsat 1B 23 Feb 13:41:21 13:46:08 34° 264° (W) 13:50:58 435.225
ITAMSAT 1 23 Feb 13:41:48 13:46:52 56° 70° (ENE) 13:52:00 435.822/435.867
AO-7 23 Feb 13:48:35 13:56:50 66° 65° (ENE) 14:05:05 .
BEESAT 2 23 Feb 13:54:34 13:57:12 16° 33° (NNE) 13:59:49 435.950
DX 1 23 Feb 14:01:20 14:04:29 20° 298° (WNW) 14:07:36 434.975-435.025
VELOX 1 23 Feb 14:05:20 14:05:36 10° 304° (NW) 14:05:53 145.980
AO-85 23 Feb 14:13:27 14:16:08 18° 247° (WSW) 14:18:49 145.980
MOZHAYETS 4 23 Feb 14:17:28 14:20:20 16° 90° (E) 14:23:10
UKube-1 23 Feb 14:17:49 14:20:47 18° 299° (WNW) 14:23:44 .
ISS 23 Feb 14:40:55 14:44:03 40° 215° (SW) 14:47:07 437.550
BEESAT 3 23 Feb 14:57:50 15:01:52 88° 244° (WSW) 15:05:53 437.485
KKS-1 23 Feb 15:04:16 15:06:02 12° 88° (E) 15:07:47 437.445
ITUPSAT 1 23 Feb 15:06:24 15:11:14 74° 286° (WNW) 15:15:59 437.325
Tancredo 1 23 Feb 15:11:59 15:14:31 21° 221° (SW) 15:17:03 437.200
BEESAT 23 Feb 15:14:28 15:19:12 61° 289° (WNW) 15:23:54 436.000
ITAMSAT 1 23 Feb 15:22:44 15:26:42 22° 268° (W) 15:30:40 435.822/435.867
BEESAT 2 23 Feb 15:31:29 15:35:35 87° 56° (NE) 15:39:38 435.950
PCSat 23 Feb 15:38:53 15:43:25 28° 110° (ESE) 15:47:59 145.827
XW-2F 23 Feb 15:41:34 15:41:59 10° 59° (ENE) 15:42:25 145.980 - 146.000
AO-7 23 Feb 15:42:50 15:50:07 32° 265° (W) 15:57:26 .
STARS 23 Feb 15:43:30 15:45:53 14° 90° (E) 15:48:16 437.465
XW-2D 23 Feb 15:43:58 15:45:20 12° 60° (ENE) 15:46:40 145.860 - 145.880
XW-2B 23 Feb 15:48:35 15:50:16 13° 61° (ENE) 15:51:59 145.730 - 145.750
MOZHAYETS 4 23 Feb 15:53:20 15:57:54 61° 288° (WNW) 16:02:26
XW-2C 23 Feb 15:56:27 15:58:44 15° 63° (ENE) 16:01:03 145.795 - 145.815
DOVE 4 23 Feb 16:10:13 16:13:34 24° 65° (ENE) 16:16:57 437.250
LilacSat-2 23 Feb 16:10:17 16:13:18 22° 66° (ENE) 16:16:20 437.200
RS-15 23 Feb 16:12:30 16:22:33 34° 104° (ESE) 16:32:51 29.354- 29.394
NUDT-PHONESAT 23 Feb 16:15:02 16:17:45 19° 65° (ENE) 16:20:29 437.300
CUTE-I 23 Feb 16:15:08 16:19:47 32° 64° (ENE) 16:24:29 437.470
NO-84 23 Feb 16:29:47 16:31:16 13° 125° (SE) 16:32:49 435.350 FM
HO-68 23 Feb 16:35:41 16:40:38 21° 51° (NE) 16:45:36 435.675
KKS-1 23 Feb 16:38:39 16:43:09 78° 286° (WNW) 16:47:37 437.445
ITUPSAT 1 23 Feb 16:46:44 16:48:12 11° 306° (NW) 16:49:40 437.325
CUBESAT XI-V 23 Feb 16:47:13 16:51:51 82° 105° (ESE) 16:56:26 437.345
M-CUBED/EXP-1 PRIME 23 Feb 16:50:02 16:53:16 28° 103° (ESE) 16:56:41 437.505
KAITUO 1B 23 Feb 17:10:13 17:14:01 79° 75° (ENE) 17:17:51 145.475/437.950
XW-2F 23 Feb 17:11:40 17:15:31 84° 260° (W) 17:19:24 145.980 - 146.000
BEESAT 2 23 Feb 17:11:41 17:12:41 11° 252° (WSW) 17:13:42 435.950
XW-2D 23 Feb 17:15:07 17:18:57 73° 257° (WSW) 17:22:50 145.860 - 145.880
STARS 23 Feb 17:18:16 17:22:40 66° 287° (WNW) 17:27:04 437.465
XW-2B 23 Feb 17:20:09 17:23:58 66° 258° (WSW) 17:27:49 145.730 - 145.750
PCSat 23 Feb 17:21:15 17:26:32 52° 309° (NW) 17:31:52 145.827
XW-2C 23 Feb 17:28:48 17:32:33 51° 260° (W) 17:36:21 145.795 - 145.815
CUTE 1.7 + AOD 2 23 Feb 17:31:29 17:34:47 22° 65° (ENE) 17:38:06 437.475
CUBEBUG 2 23 Feb 17:31:30 17:33:16 12° 57° (ENE) 17:35:01 437.445
LilacSat-2 23 Feb 17:43:52 17:47:25 33° 263° (W) 17:50:59 437.200
DOVE 4 23 Feb 17:47:24 17:51:09 33° 264° (W) 17:54:58 437.250
NUDT-PHONESAT 23 Feb 17:47:56 17:51:27 36° 263° (W) 17:55:00 437.300
CUTE-I 23 Feb 17:54:42 17:59:43 41° 262° (W) 18:04:47 437.470
XW-2A 23 Feb 17:57:40 18:00:59 53° 73° (ENE) 18:04:21 145.665 - 145.685
STRAND 1 23 Feb 18:03:46 18:06:58 16° 89° (E) 18:10:10 437.568
NO-84 23 Feb 18:04:56 18:08:18 90° 325° (NW) 18:12:03 435.350 FM
UWE-3 23 Feb 18:11:22 18:14:29 19° 62° (ENE) 18:17:40 435.000/436.395/437.385
KKS-1 23 Feb 18:17:51 18:18:56 11° 304° (NW) 18:20:00 437.445
HO-68 23 Feb 18:20:12 18:27:23 83° 71° (ENE) 18:34:36 435.675
RS-15 23 Feb 18:21:45 18:33:49 82° 308° (NW) 18:46:19 29.354- 29.394
M-CUBED/EXP-1 PRIME 23 Feb 18:24:35 18:27:41 26° 297° (WNW) 18:30:58 437.505
CUBESAT XI-V 23 Feb 18:26:17 18:28:35 14° 302° (WNW) 18:30:52 437.345
AAUSAT CUBESAT 2 23 Feb 18:27:03 18:30:35 27° 67° (ENE) 18:34:08 437.432
SEEDS 23 Feb 18:31:23 18:35:33 58° 73° (ENE) 18:39:43 437.485
ZACube-1 23 Feb 18:36:32 18:39:49 20° 63° (ENE) 18:43:09 437.345
CUBEBUG 2 23 Feb 19:04:40 19:09:05 87° 79° (E) 19:13:42 437.445
CUTE 1.7 + AOD 2 23 Feb 19:06:20 19:10:23 41° 262° (W) 19:14:28 437.475
PCSat 23 Feb 19:08:10 19:11:14 15° 332° (NNW) 19:14:18 145.827
AO-73 23 Feb 19:24:48 19:29:08 52° 72° (ENE) 19:33:34 145.935
YUBILEINY 23 Feb 19:29:07 19:35:30 22° 57° (ENE) 19:41:49 435.215
XW-2A 23 Feb 19:33:28 19:34:07 10° 271° (W) 19:34:45 145.665 - 145.685
Oscar 11 23 Feb 19:34:01 19:38:16 56° 73° (ENE) 19:42:34 .
STRAND 1 23 Feb 19:41:32 19:46:42 72° 287° (WNW) 19:51:49 437.568
NO-84 23 Feb 19:43:15 19:46:25 28° 347° (NNW) 19:49:50 435.350 FM
UWE-3 23 Feb 19:46:08 19:50:30 56° 260° (W) 19:55:02 435.000/436.395/437.385
AAUSAT CUBESAT 2 23 Feb 20:02:19 20:05:58 30° 264° (W) 20:09:40 437.432
SEEDS 23 Feb 20:09:14 20:11:37 15° 270° (W) 20:14:00 437.485
HO-68 23 Feb 20:10:46 20:15:55 21° 271° (W) 20:21:06 435.675
ZACube-1 23 Feb 20:11:24 20:15:44 50° 261° (W) 20:20:11 437.345
DELFI C3 23 Feb 20:15:35 20:19:26 50° 72° (ENE) 20:23:15 145.870
PRISM 23 Feb 20:25:37 20:28:18 17° 92° (E) 20:30:59 437.425
RS-15 23 Feb 20:37:09 20:48:25 40° 338° (NNW) 20:59:50 29.354- 29.394
CUBEBUG 2 23 Feb 20:45:23 20:46:25 11° 275° (W) 20:47:28 437.445
FO-29 23 Feb 20:50:08 20:53:50 14° 80° (E) 20:57:24 435.910
AO-73 23 Feb 21:02:34 21:05:41 18° 270° (W) 21:08:51 145.935
SO-50 23 Feb 21:09:07 21:10:52 12° 108° (ESE) 21:12:36 436.795
Oscar 11 23 Feb 21:12:04 21:14:46 16° 270° (W) 21:17:29 .
ESTCUBE 1 23 Feb 21:17:11 21:20:37 22° 63° (ENE) 21:24:03 437.505/2401.250
NO-84 23 Feb 21:21:46 21:25:01 25° 8° (N) 21:28:28 435.350 FM
STRAND 1 23 Feb 21:22:58 21:24:59 12° 306° (NW) 21:26:58 437.568
YUBILEINY 23 Feb 21:24:57 21:33:45 85° 80° (E) 21:42:28 435.215
UNISAT 6 23 Feb 21:37:55 21:42:27 45° 98° (E) 21:46:56 437.425
TIGRISAT 23 Feb 21:38:47 21:43:18 42° 98° (E) 21:47:44 435.000
VELOX 1 23 Feb 21:50:47 21:53:36 17° 61° (ENE) 21:56:25 145.980
DELFI C3 23 Feb 21:52:11 21:54:31 15° 270° (W) 21:56:50 145.870
O/OREOS (USA 219) 23 Feb 21:56:44 22:00:05 21° 102° (ESE) 22:03:27 437.305
PRISM 23 Feb 21:59:56 22:03:51 47° 289° (WNW) 22:07:45 437.425
50 SAT 23 Feb 22:08:45 22:10:26 13° 63° (ENE) 22:12:09 437.505
SPROUT 23 Feb 22:11:16 22:14:24 20° 63° (ENE) 22:17:34 437.525
FO-29 23 Feb 22:32:35 22:40:22 69° 101° (E) 22:47:27 435.910
AIST 2D 23 Feb 22:35:00 22:37:57 23° 94° (E) 22:40:51 435.315
PCSat 23 Feb 22:40:37 22:43:19 14° 26° (NNE) 22:46:01 145.827
SO-50 23 Feb 22:45:56 22:50:37 85° 127° (SE) 22:55:16 436.795
DUCHIFAT 1 23 Feb 22:50:22 22:53:32 20° 92° (E) 22:56:41 145.980
ESTCUBE 1 23 Feb 22:52:47 22:57:08 46° 261° (W) 23:01:30 437.505/2401.250
RS-15 23 Feb 22:54:13 23:05:15 35° 12° (NNE) 23:16:08 29.354- 29.394
EO-79 23 Feb 22:58:45 23:02:30 28° 95° (E) 23:06:13 145.935-145.965
NO-84 23 Feb 22:59:24 23:03:21 54° 28° (NNE) 23:07:35 435.350 FM
UNISAT 6 23 Feb 23:15:08 23:18:54 24° 296° (WNW) 23:22:39 437.425
POLYITAN 1 23 Feb 23:15:30 23:19:37 42° 98° (E) 23:23:42 437.675
TIGRISAT 23 Feb 23:15:54 23:19:45 25° 296° (WNW) 23:23:33 435.000
NANOSAT C BR1 23 Feb 23:16:37 23:20:40 40° 98° (E) 23:24:41 145.865
QB50P2 23 Feb 23:18:21 23:22:32 49° 99° (E) 23:26:41 145.880/145.840
DX 1 23 Feb 23:22:19 23:26:34 61° 73° (ENE) 23:30:51 434.975-435.025
YUBILEINY 23 Feb 23:23:10 23:29:25 23° 283° (WNW) 23:35:39 435.215
VELOX 1 23 Feb 23:25:18 23:29:37 59° 259° (W) 23:33:58 145.980
O/OREOS (USA 219) 23 Feb 23:34:51 23:39:10 46° 301° (WNW) 23:43:32 437.305
UKube-1 23 Feb 23:37:44 23:41:59 64° 73° (ENE) 23:46:16 .
50 SAT 23 Feb 23:39:47 23:43:12 49° 260° (W) 23:46:37 437.505
SPROUT 23 Feb 23:45:58 23:50:02 44° 261° (W) 23:54:09 437.525
BUGSAT 1 23 Feb 23:53:40 23:57:32 33° 97° (E) 00:01:22 437.445
AIST 2D 24 Feb 00:08:09 00:11:08 25° 292° (WNW) 00:14:06 435.315
Gurwin Techsat 1B 24 Feb 00:17:06 00:18:19 11° 85° (E) 00:19:32 435.225
FO-29 24 Feb 00:18:12 00:24:45 31° 302° (WNW) 00:30:56 435.910
PCSat 24 Feb 00:22:56 00:28:10 45° 49° (NE) 00:33:21 145.827
DUCHIFAT 1 24 Feb 00:25:21 00:29:24 43° 290° (WNW) 00:33:26 145.980
SO-50 24 Feb 00:28:10 00:31:40 21° 326° (NW) 00:35:08 436.795
EO-79 24 Feb 00:34:29 00:38:15 30° 293° (WNW) 00:42:00 145.935-145.965
NO-84 24 Feb 00:37:13 00:41:01 34° 225° (SW) 00:45:00 435.350 FM
ITUPSAT 1 24 Feb 00:39:09 00:43:01 25° 63° (ENE) 00:46:53 437.325
BEESAT 24 Feb 00:46:33 00:50:38 29° 64° (ENE) 00:54:43 436.000
POLYITAN 1 24 Feb 00:51:52 00:55:09 22° 296° (WNW) 00:58:26 437.675
NANOSAT C BR1 24 Feb 00:52:50 00:56:10 22° 296° (WNW) 00:59:29 145.865
QB50P2 24 Feb 00:54:56 00:58:00 19° 297° (WNW) 01:01:02 145.880/145.840
DX 1 24 Feb 01:00:44 01:03:10 15° 270° (W) 01:05:35 434.975-435.025
RS-15 24 Feb 01:08:28 01:20:49 63° 43° (NE) 01:32:41 29.354- 29.394
UKube-1 24 Feb 01:16:14 01:18:27 14° 270° (W) 01:20:41 .
Oscar 19 24 Feb 01:21:20 01:26:28 70° 103° (ESE) 01:31:34 437.125/150
MOZHAYETS 4 24 Feb 01:21:46 01:25:22 23° 63° (ENE) 01:28:58
BUGSAT 1 24 Feb 01:29:13 01:32:46 26° 294° (WNW) 01:36:19 437.445
AO-7 24 Feb 01:48:55 01:53:36 16° 86° (E) 01:58:13 .
ITAMSAT 1 24 Feb 01:53:00 01:56:05 16° 89° (E) 01:59:09 435.822/435.867
Gurwin Techsat 1B 24 Feb 01:53:48 01:59:09 77° 104° (ESE) 02:04:29 435.225
KKS-1 24 Feb 02:04:36 02:07:29 17° 60° (ENE) 02:10:23 437.445
PCSat 24 Feb 02:06:36 02:11:26 33° 248° (WSW) 02:16:14 145.827
ITUPSAT 1 24 Feb 02:15:58 02:20:35 46° 261° (W) 02:25:15 437.325
CUBESAT XI-V 24 Feb 02:18:09 02:20:48 15° 59° (ENE) 02:23:26 437.345
BEESAT 24 Feb 02:23:50 02:28:16 38° 262° (W) 02:32:46 436.000
STARS 24 Feb 02:42:37 02:45:41 19° 62° (ENE) 02:48:47 437.465
MOZHAYETS 4 24 Feb 02:57:45 03:02:14 47° 261° (W) 03:06:44
Oscar 19 24 Feb 03:01:46 03:05:16 19° 301° (WNW) 03:08:45 437.125/150
RS-15 24 Feb 03:21:34 03:33:06 50° 249° (WSW) 03:44:14 29.354- 29.394
ITAMSAT 1 24 Feb 03:30:53 03:36:09 77° 287° (WNW) 03:41:22 435.822/435.867
Gurwin Techsat 1B 24 Feb 03:34:57 03:38:30 18° 302° (WNW) 03:42:02 435.225
M-CUBED/EXP-1 PRIME 24 Feb 03:39:05 03:42:18 54° 68° (ENE) 03:45:31 437.505
KKS-1 24 Feb 03:39:15 03:43:36 60° 259° (W) 03:48:01 437.445
AO-7 24 Feb 03:39:27 03:47:49 74° 107° (ESE) 03:56:05 .
CUBESAT XI-V 24 Feb 03:52:55 03:57:35 76° 257° (WSW) 04:02:16 437.345
SO-50 24 Feb 03:56:22 03:56:38 10° 16° (NNE) 03:56:55 436.795
STARS 24 Feb 04:17:25 04:21:40 51° 260° (W) 04:25:58 437.465
AO-85 24 Feb 04:28:47 04:33:14 62° 124° (ESE) 04:37:24 145.980
XW-2B 24 Feb 04:52:08 04:53:13 11° 88° (E) 04:54:17 145.730 - 145.750
XW-2C 24 Feb 04:59:53 05:01:55 14° 90° (E) 05:03:56 145.795 - 145.815
ITAMSAT 1 24 Feb 05:12:19 05:14:46 13° 306° (NW) 05:17:12 435.822/435.867
